Home   Weather   Sunrise   Past weeks

Flag for USA Past Weather in Sunrise, Florida, USA — Yesterday and Last 2 Weeks

Now
80 °F

Passing clouds.


Feels Like: 83 °F
Forecast: 80 / 87 °F
Wind: 13 mph from Southeast

Location: Fort Lauderdale Executive Airport

Current Time: Apr 30, 2017 at 7:35:05 am

Latest Report: Apr 30, 2017 at 6:53 am


Visibility: 10 mi

Pressure: 30.10 "Hg

Humidity: 67%

Dew Point: 68 °F

Location of SunriseLocation

Past Weather in Sunrise — Graph

°F

Sunrise Temperature Yesterday

Maximum temperature yesterday: 87 °F (at 12:05 pm)
Minimum temperature yesterday: 80 °F (at 4:53 am)
Average temperature yesterday: 83 °F

High & Low Weather Summary for the Past Weeks

 TemperatureHumidityPressure
High90 °F (Apr 24, 2:53 pm)91% (Apr 24, 9:02 am)30.22 "Hg (Apr 24, 9:02 am)
Low65 °F (Apr 26, 4:53 am)32% (Apr 25, 2:53 pm)29.71 "Hg (Apr 24, 4:53 pm)
Average79 °F61%30.00 "Hg
* Reported Apr 15 5:53 am — Apr 30 5:53 am, Sunrise, Weather by CustomWeather, © 2017

Note: Actual official high and low records may vary slightly from our data, if they occured in-between our weather recording intervals... More about our weather records

Advertising

Sunrise Weather History for the Previous 24 Hours

Scroll right to see more
 ConditionsComfort  
Time TempWeatherWind HumidityBarometerVisibility
5:53 am
Sun, Apr 30
80 °FClear.15 mph64%30.08 "Hg10 mi
4:53 am80 °FPassing clouds.20 mph64%30.08 "Hg10 mi
3:53 am81 °FPassing clouds.18 mph62%30.08 "Hg10 mi
2:53 am81 °FPassing clouds.15 mph62%30.09 "Hg10 mi
1:53 am80 °FMostly cloudy.21 mph69%30.10 "Hg10 mi
1:03 am81 °FOvercast.18 mph67%30.11 "Hg10 mi
11:53 pm
Sat, Apr 29
81 °FPassing clouds.17 mph69%30.12 "Hg10 mi
11:39 pm81 °FPartly cloudy.20 mph69%30.12 "Hg10 mi
11:13 pm81 °FPartly cloudy.15 mph69%30.11 "Hg10 mi
11:03 pm81 °FPassing clouds.16 mph69%30.11 "Hg10 mi
10:53 pm81 °FPassing clouds.15 mph69%30.12 "Hg10 mi
10:20 pm81 °FPartly cloudy.15 mph69%30.12 "Hg10 mi
9:03 pm81 °FPassing clouds.18 mph69%30.10 "Hg10 mi
9:00 pm81 °FPassing clouds.18 mph69%30.10 "Hg10 mi
7:53 pm82 °FPassing clouds.17 mph65%30.10 "Hg10 mi
7:37 pm82 °FBroken clouds.20 mph65%30.09 "Hg10 mi
6:53 pm82 °FScattered clouds.20 mph65%30.09 "Hg10 mi
5:53 pm84 °FScattered clouds.21 mph61%30.09 "Hg10 mi
4:53 pm85 °FScattered clouds.17 mph59%30.09 "Hg10 mi
3:53 pm85 °FScattered clouds.18 mph59%30.11 "Hg10 mi
2:53 pm86 °FScattered clouds.21 mph55%30.13 "Hg10 mi
1:53 pm87 °FScattered clouds.16 mph53%30.14 "Hg10 mi
12:53 pm86 °FScattered clouds.21 mph55%30.14 "Hg10 mi
12:05 pm87 °FScattered clouds.18 mph53%30.15 "Hg10 mi
10:53 am86 °FScattered clouds.18 mph53%30.16 "Hg10 mi
9:53 am86 °FScattered clouds.16 mph55%30.15 "Hg10 mi
8:53 am83 °FScattered clouds.20 mph61%30.14 "Hg10 mi
7:53 am82 °FScattered clouds.17 mph65%30.14 "Hg10 mi
Weather by CustomWeather, © 2017

See weather overviewHow to use our weather pages